Racecast

OHSAA District - Hil. Darby

Hilliard Darby HS · 5000m · Girls · D2 sec 1 · 2021-10-23 · OH

Course difficulty: -0.8%i

Race-day weather: 51°F · wind 21 mph · humidity 74% · rain before the race

View full meet →

Team scores

Place Team Points 12345 67
1 Granville (OH) 26 1 2 4 8 11 12 15
2 Hartley (OH) 65 5 9 16 17 18 28 29
3 Fredericktown (OH) 67 3 10 14 19 21 27 31
4 Heb. Lakewood (OH) 113 7 22 25 26 33 34 36
5 Cal. River Valley (OH) 125 6 20 24 35 40 45
6 Heath (OH) 154 13 23 38 39 41 43 44
7 London (OH) 187 30 32 37 42 46

As scored by the meet.

Results

Place Athlete Grade School Time Ratingi Points
1 Regina Rose 12 Granville (OH) 1 18:16.8 PR 135.6 1
2 Zoee Lehman 11 Granville (OH) 2 18:52.8 131.3 2
3 Elsa Hoam 11 Fredericktown (OH) 1 19:11.6 129.1 3
4 Lilly Eckels 11 Granville (OH) 3 19:41.3 PR 125.9 4
5 Rebecca Tepper 12 Hartley (OH) 1 19:53.3 124.6 5
6 Catherine Starrs 12 Cal. River Valley (OH) 1 20:06.1 123.3 6
7 Addison Pound 11 Heb. Lakewood (OH) 1 20:07.6 SR 123.1 7
8 Kara Bergeron 10 Granville (OH) 4 20:16.6 122.2 8
9 Piper Minnich 10 Hartley (OH) 2 20:20.3 121.9 9
10 Natalie Vanmeter 12 Fredericktown (OH) 2 20:20.8 121.8 10
11 Emma Mialky 9 Granville (OH) 5 20:56.3 PR 118.4 11
12 Lauren Logan 11 Granville (OH) 6 20:57.3 PR 118.3 12
13 Elisa Halsey 12 Heath (OH) 1 21:02.8 SR 117.8 13
14 Taylor Brown 9 Fredericktown (OH) 3 21:10.1 117.1 14
15 Rylie Kraus 10 Granville (OH) 7 21:42.1 PR 114.2 15
16 Maleah Ogden 9 Hartley (OH) 3 21:46.6 113.8 16
17 Jackie Radous 11 Hartley (OH) 4 21:57.3 112.9 17
18 Katie Morrow 10 Hartley (OH) 5 22:07.6 112.0 18
19 Kelsey Scott 10 Fredericktown (OH) 4 22:08.6 PR 111.9 19
20 Eva Moran 9 Cal. River Valley (OH) 2 22:14.6 111.4 20
21 Taylor Thorne 9 Fredericktown (OH) 5 22:16.8 PR 111.2 21
22 Olivia O'Neill 9 Heb. Lakewood (OH) 2 22:17.1 PR 111.2 22
23 Ally Stephens 11 Heath (OH) 2 22:31.8 SR 110.0 23
24 Karlee Parry 11 Amanda-Clearcreek (OH) 1 22:41.1 109.2
25 Allie Valentine 10 Cal. River Valley (OH) 3 22:42.3 109.2 24
26 Maggie Taylor 9 Heb. Lakewood (OH) 3 22:43.3 PR 109.1 25
27 Christl Blaha 12 Heb. Lakewood (OH) 4 22:44.8 PR 109.0 26
28 Kacie Rook 10 Fredericktown (OH) 6 22:46.8 PR 108.8 27
29 Anna Torrell 11 Hartley (OH) 6 22:47.6 108.7 28
30 Cece Woods 11 Hartley (OH) 7 22:49.6 PR 108.6 29
31 Lily Patterson 9 London (OH) 1 22:57.1 PR 108.0 30
32 Caroline Gladman 9 Fredericktown (OH) 7 23:00.6 PR 107.7 31
33 Sarah Epps 9 Utica (MI) 1 23:09.8 PR 107.0
34 Isabelle Tipton 11 London (OH) 2 23:26.6 PR 105.7 32
35 Landry Driskel 11 Heb. Lakewood (OH) 5 23:29.8 PR 105.5 33
36 Allie Taylor 9 Heb. Lakewood (OH) 6 23:48.8 104.1 34
37 Morgan Elliott 10 Cal. River Valley (OH) 4 23:54.1 SR 103.7 35
38 Kyley Martin 11 Heb. Lakewood (OH) 7 23:57.8 PR 103.4 36
39 Autumn Parry 11 Amanda-Clearcreek (OH) 2 24:03.3 PR 103.0
40 Riley Colestock 10 London (OH) 3 24:11.8 102.4 37
41 Sidney Shoemaker 10 Heath (OH) 3 24:56.6 SR 99.4 38
42 Faith Westbrook 10 Heath (OH) 4 25:47.8 SR 96.1 39
43 Kaitie Garrison 9 Cal. River Valley (OH) 5 26:33.1 93.3 40
44 Barbara Binckley 11 Heath (OH) 5 26:46.8 92.5 41
45 Andria Pollazek 9 London (OH) 4 27:18.1 42
46 Brianne Priest 11 Utica (MI) 2 27:40.6 SR 89.5
47 Maya Smith 10 Utica (MI) 3 29:00.6 SR 85.4
48 Abbie Rhymer 12 Amanda-Clearcreek (OH) 3 29:29.1 84.0
49 Ellie Warnick 12 Heath (OH) 6 29:35.6 83.8 43
50 Lilly Lake 10 Heath (OH) 7 31:08.3 PR 79.6 44
51 Mary Temple 9 Cal. River Valley (OH) 6 33:09.1 PR 74.8 45
52 Kate Slane 12 London (OH) 5 36:35.1 SR 67.7 46
Something wrong on this page? Report it →